CW5302 Weather Reports


Display with metric or nautical units.
time (UTC)temp
F
wind
direction
speed
MPH
gust
MPH
rain 1hr
in
rain 24hr
in
rain mn
in
humidity
%
barometer
mb
20260509094319 49 256 0.0 0.0 0.00 0.00 0.00 93 1016.9
20260509093331 50 256 0.0 0.0 0.00 0.00 0.00 93 1016.9
20260509092348 50 256 0.0 0.0 0.00 0.00 0.00 93 1017.0
20260509091357 50 256 0.0 0.0 0.00 0.00 0.00 93 1017.1
20260509090327 50 256 0.0 0.0 0.00 0.00 0.00 93 1017.1
20260509085323 51 256 0.0 0.0 0.00 0.00 0.00 92 1017.2
20260509084333 51 256 0.0 0.0 0.00 0.00 0.00 92 1017.2
20260509083325 51 256 0.0 0.0 0.00 0.00 0.00 92 1017.2
20260509082325 52 256 0.0 0.0 0.00 0.00 0.00 91 1017.2
20260509081335 52 256 0.0 0.0 0.00 0.00 0.00 91 1017.2
20260509080347 53 256 0.0 0.0 0.00 0.00 0.00 91 1017.2
20260509075338 53 256 0.0 0.0 0.00 0.00 0.00 91 1017.3
20260509074330 53 256 0.0 0.0 0.00 0.00 0.00 90 1017.5
20260509073327 53 256 0.0 0.0 0.00 0.00 0.00 90 1017.5
20260509072322 54 256 0.0 0.0 0.00 0.00 0.00 89 1017.5
20260509071318 54 256 0.0 0.0 0.00 0.00 0.00 87 1017.6
20260509070329 55 256 0.0 0.0 0.00 0.00 0.00 87 1017.6
20260509065323 55 256 0.0 0.0 0.00 0.00 0.00 86 1017.6
20260509064313 56 256 0.0 0.0 0.00 0.00 0.00 84 1017.5
20260509063354 56 256 0.0 0.0 0.00 0.00 0.00 84 1017.5
20260509062325 57 256 0.0 0.0 0.00 0.00 0.00 82 1017.5
20260509061336 58 256 0.0 0.0 0.00 0.00 0.00 80 1017.3
20260509060328 58 256 0.0 0.0 0.00 0.00 0.00 78 1017.3
20260509055320 59 256 0.0 0.0 0.00 0.00 0.00 77 1017.4
20260509054318 60 256 0.0 3.0 0.00 0.00 0.00 73 1017.5
20260509053351 60 262 0.0 0.0 0.00 0.00 0.00 73 1017.5
20260509052321 60 261 0.0 0.0 0.00 0.00 0.00 72 1017.5
20260509051314 61 310 0.0 0.0 0.00 0.00 0.00 71 1017.5
20260509050333 62 310 0.0 0.0 0.00 0.00 0.00 70 1017.5
20260509045327 62 360 0.0 4.0 0.00 0.00 0.00 66 1017.2
20260509044320 62 332 0.0 4.0 0.00 0.00 0.00 65 1016.8
20260509043331 62 304 0.0 3.0 0.00 0.00 0.00 64 1016.8
20260509042326 63 304 0.0 4.0 0.00 0.00 0.00 65 1016.7
20260509041316 63 303 0.0 0.0 0.00 0.00 0.00 64 1016.6
20260509040351 64 303 0.0 0.0 0.00 0.00 0.00 63 1016.6
20260509035322 65 303 0.0 0.0 0.00 0.00 0.00 59 1016.5
20260509034334 66 303 0.0 1.0 0.00 0.00 0.00 57 1016.3
20260509033347 67 303 0.0 0.0 0.00 0.00 0.00 55 1016.3
20260509032320 68 303 0.0 3.0 0.00 0.00 0.00 54 1016.2
20260509031331 68 338 0.0 2.0 0.00 0.00 0.00 52 1016.2
20260509030326 69 328 0.0 2.0 0.00 0.00 0.00 52 1016.2
20260509025317 69 341 0.0 6.0 0.00 0.00 0.00 51 1016.2
20260509024330 70 333 2.0 7.0 0.00 0.00 0.00 50 1016.1
20260509023327 71 323 1.0 7.0 0.00 0.00 0.00 48 1016.1
20260509022318 71 327 0.0 7.0 0.00 0.00 0.00 49 1016.1
20260509021356 72 315 3.0 6.0 0.00 0.00 0.00 49 1016.0
20260509020326 73 323 1.0 6.0 0.00 0.00 0.00 46 1016.0
20260509015317 74 355 0.0 3.0 0.00 0.00 0.00 45 1015.7
20260509014312 74 355 0.0 7.0 0.00 0.00 0.00 42 1015.6
20260509013330 75 26 0.0 6.0 0.00 0.00 0.00 44 1015.6
20260509012327 75 344 1.0 11.0 0.00 0.00 0.00 46 1015.8
20260509011321 75 32 1.0 6.0 0.00 0.00 0.00 44 1015.9
20260509010357 75 22 0.0 6.0 0.00 0.00 0.00 44 1015.9
20260509005328 76 329 1.0 7.0 0.00 0.00 0.00 46 1016.0
20260509004319 76 27 3.0 7.0 0.00 0.00 0.00 41 1016.0
20260509003330 76 348 2.0 7.0 0.00 0.00 0.00 41 1016.0
20260509002328 76 321 3.0 7.0 0.00 0.00 0.00 42 1016.1
20260509001326 76 58 2.0 8.0 0.00 0.00 0.00 40 1016.1
20260509000318 76 335 1.0 6.0 0.00 0.00 0.00 41 1016.1
20260508235350 76 346 1.0 6.0 0.00 0.00 0.00 41 1016.1
20260508234322 75 307 0.0 5.0 0.00 0.00 0.00 42 1016.2
20260508233335 75 321 0.0 8.0 0.00 0.00 0.00 40 1016.2
20260508232326 75 329 1.0 8.0 0.00 0.00 0.00 43 1016.2
20260508231318 75 101 1.0 6.0 0.00 0.00 0.00 42 1016.3
20260508230331 75 282 3.0 8.0 0.00 0.00 0.00 42 1016.3
20260508225328 75 15 1.0 8.0 0.00 0.00 0.00 42 1016.6
20260508224341 75 275 1.0 7.0 0.00 0.00 0.00 43 1016.7
20260508223326 74 109 1.0 7.0 0.00 0.00 0.00 46 1016.7
20260508222321 74 326 1.0 7.0 0.00 0.00 0.00 45 1016.7
20260508221332 73 287 2.0 6.0 0.00 0.00 0.00 49 1017.0
20260508220325 74 22 1.0 5.0 0.00 0.00 0.00 47 1017.0
20260508215320 73 287 0.0 7.0 0.00 0.00 0.00 51 1017.2
20260508214315 72 57 1.0 8.0 0.00 0.00 0.00 56 1017.2
20260508213329 72 313 1.0 5.0 0.00 0.00 0.00 53 1017.2
20260508212324 71 29 0.0 9.0 0.00 0.00 0.00 58 1017.2
20260508211319 71 350 1.0 6.0 0.00 0.00 0.00 55 1017.2
20260508210316 70 35 2.0 6.0 0.00 0.00 0.00 58 1017.2
20260508205329 69 338 2.0 8.0 0.00 0.00 0.00 56 1017.3
20260508204322 69 26 0.0 6.0 0.00 0.00 0.00 56 1017.6
20260508203335 68 297 0.0 6.0 0.00 0.00 0.00 58 1017.6
20260508202324 67 327 2.0 7.0 0.00 0.00 0.00 63 1017.7
20260508201320 67 150 1.0 4.0 0.00 0.00 0.00 60 1017.8
20260508200332 66 183 1.0 7.0 0.00 0.00 0.00 63 1017.8
20260508195325 66 338 1.0 5.0 0.00 0.00 0.00 62 1017.9
20260508194319 65 321 0.0 4.0 0.00 0.00 0.00 64 1018.2
20260508193333 65 54 0.0 5.0 0.00 0.00 0.00 66 1018.2
20260508192325 64 40 0.0 4.0 0.00 0.00 0.00 66 1018.3
20260508191337 64 336 0.0 3.0 0.00 0.00 0.00 66 1018.3
20260508190330 63 86 1.0 8.0 0.00 0.00 0.00 66 1018.3
20260508185326 62 254 1.0 5.0 0.00 0.00 0.00 67 1018.5
20260508184338 61 275 1.0 4.0 0.00 0.00 0.00 71 1018.7
20260508183351 61 34 0.0 4.0 0.00 0.00 0.00 69 1018.7
20260508182325 60 61 0.0 5.0 0.00 0.00 0.00 71 1018.7
20260508181341 60 45 0.0 4.0 0.00 0.00 0.00 71 1018.8
20260508180336 58 87 0.0 2.0 0.00 0.00 0.00 75 1018.8
20260508175328 57 315 0.0 5.0 0.00 0.00 0.00 75 1018.7
20260508174320 57 281 0.0 4.0 0.00 0.00 0.00 76 1018.5
20260508173331 57 319 0.0 3.0 0.00 0.00 0.00 79 1018.5
20260508172324 56 347 1.0 4.0 0.00 0.00 0.00 78 1018.4
20260508171336 56 309 0.0 6.0 0.00 0.00 0.00 80 1018.4
20260508170354 56 5 0.0 5.0 0.00 0.00 0.00 80 1018.4
20260508165323 55 305 0.0 2.0 0.00 0.00 0.00 81 1018.3
20260508164354 55 340 0.0 2.0 0.00 0.00 0.00 81 1018.2
20260508163326 55 342 0.0 4.0 0.00 0.00 0.00 83 1018.2
20260508162317 54 337 0.0 3.0 0.00 0.00 0.00 83 1018.2
20260508161335 54 117 0.0 0.0 0.00 0.00 0.00 84 1017.8
20260508160347 54 123 0.0 2.0 0.00 0.00 0.00 84 1017.8
20260508155320 53 111 0.0 0.0 0.00 0.00 0.00 85 1018.0
20260508154333 53 111 0.0 0.0 0.00 0.00 0.00 86 1018.3
20260508153324 53 111 0.0 0.0 0.00 0.00 0.00 87 1018.3
20260508152321 52 111 0.0 0.0 0.00 0.00 0.00 88 1018.2
20260508151333 52 111 0.0 1.0 0.00 0.00 0.00 90 1018.2
20260508150332 51 111 0.0 2.0 0.00 0.00 0.00 92 1018.2
20260508145323 51 110 0.0 0.0 0.00 0.00 0.00 95 1018.1
20260508144352 51 186 0.0 0.0 0.00 0.00 0.00 97 1018.2
20260508143325 51 189 0.0 1.0 0.00 0.00 0.00 98 1018.2
20260508142355 50 321 0.0 0.0 0.00 0.00 0.00 98 1018.2
20260508141325 50 321 0.0 0.0 0.00 0.00 0.00 98 1018.1
20260508140337 50 321 0.0 0.0 0.00 0.00 0.00 99 1018.1
20260508135329 49 321 0.0 0.0 0.00 0.00 0.00 98 1017.8
20260508134320 49 321 0.0 0.0 0.00 0.00 0.00 98 1017.6
20260508133332 49 321 0.0 0.0 0.00 0.00 0.00 98 1017.6
20260508132324 48 321 0.0 0.0 0.00 0.00 0.00 98 1017.3
20260508131321 47 321 0.0 0.0 0.00 0.00 0.00 98 1017.2
20260508130333 47 321 0.0 0.0 0.00 0.00 0.00 97 1017.2
20260508125328 47 321 0.0 0.0 0.00 0.00 0.00 97 1017.1
20260508124326 48 321 0.0 0.0 0.00 0.00 0.00 97 1016.8
20260508123318 48 321 0.0 0.0 0.00 0.00 0.00 98 1016.8
20260508122333 48 321 0.0 0.0 0.00 0.00 0.00 97 1016.7
20260508121324 48 321 0.0 0.0 0.00 0.00 0.00 97 1016.6
20260508120339 48 321 0.0 0.0 0.00 0.00 0.00 97 1016.6
20260508115329 48 321 0.0 0.0 0.00 0.00 0.00 97 1016.6
20260508114324 48 321 0.0 0.0 0.00 0.00 0.00 97 1016.5
20260508113315 48 321 0.0 0.0 0.00 0.00 0.00 97 1016.5
20260508112326 48 321 0.0 0.0 0.00 0.00 0.00 97 1016.2
20260508111316 48 321 0.0 0.0 0.00 0.00 0.00 97 1016.1
20260508110330 48 321 0.0 1.0 0.00 0.00 0.00 97 1016.1
20260508105324 47 321 0.0 0.0 0.00 0.00 0.00 96 1015.9
20260508104319 47 321 0.0 0.0 0.00 0.00 0.00 96 1015.6
20260508103331 47 321 0.0 0.0 0.00 0.00 0.00 96 1015.6
20260508102321 48 321 0.0 0.0 0.00 0.00 0.00 96 1015.6
20260508101354 48 321 0.0 0.0 0.00 0.00 0.00 96 1015.5
20260508100326 48 321 0.0 0.0 0.00 0.00 0.00 95 1015.5
20260508095340 48 321 0.0 0.0 0.00 0.00 0.00 95 1015.3